Location: Kitchener
(43.4500°N, 80.5000°W)
Time: 03:47:56
(UTC-04:00)

Cosmos 1939 Rocket - Visible Passes

Search period start: 04 September 2015 00:00
Search period end: 14 September 2015 00:00
Orbit: 532 x 592 km, 97.6° (Epoch: 02 September)

Date Brightness Start Highest point End Pass type
(mag) Time Alt. Az. Time Alt. Az. Time Alt. Az.
04 Sep 4.7 20:40:46 11° E 20:42:20 14° ENE 20:44:29 10° NNE visible
04 Sep 3.5 22:16:45 46° WSW 22:17:00 47° W 22:20:45 10° NNW visible
05 Sep 4.7 20:40:26 12° E 20:41:53 14° ENE 20:44:00 10° NNE visible
05 Sep 3.5 22:16:25 47° WSW 22:16:31 47° W 22:20:18 10° NNW visible
06 Sep 4.7 20:40:05 12° E 20:41:25 14° ENE 20:43:31 10° NNE visible
06 Sep 3.5 22:16:04 48° W 22:16:04 48° W 22:19:50 10° NNW visible
07 Sep 4.7 20:39:45 12° E 20:40:57 14° ENE 20:43:01 10° NNE visible
07 Sep 3.5 22:15:43 48° W 22:15:43 48° W 22:19:23 10° NNW visible
08 Sep 4.7 20:39:24 12° E 20:40:29 14° ENE 20:42:32 10° NNE visible
08 Sep 3.6 22:15:22 48° W 22:15:22 48° W 22:18:54 10° NNW visible
09 Sep 4.7 20:39:03 12° E 20:40:02 14° ENE 20:42:03 10° NNE visible
09 Sep 3.6 22:15:02 48° WNW 22:15:02 48° WNW 22:18:27 10° NNW visible
10 Sep 4.7 20:38:42 12° ENE 20:39:33 13° ENE 20:41:33 10° NNE visible
10 Sep 3.7 22:14:41 47° WNW 22:14:41 47° WNW 22:17:59 10° NNW visible
11 Sep 4.7 20:38:21 13° ENE 20:39:05 13° ENE 20:41:04 10° NE visible
11 Sep 3.8 22:14:20 46° WNW 22:14:20 46° WNW 22:17:31 10° NNW visible
12 Sep 4.7 20:38:00 13° ENE 20:38:37 13° ENE 20:40:34 10° NE visible
12 Sep 3.8 22:13:58 44° WNW 22:13:58 44° WNW 22:17:03 10° NNW visible
13 Sep 4.7 20:37:38 13° ENE 20:38:08 13° ENE 20:40:05 10° NE visible
13 Sep 3.9 22:13:37 42° NW 22:13:37 42° NW 22:16:35 10° NNW visible
